[[{"header":{"parameterUnit":"m.s-1","parameterCategory":2,"la1":30.2991,"la2":30.254,"lo1":-89.0895,"lo2":-89.0444,"dy":0.0017,"dx":0.0017,"nx":28,"ny":28,"refTime":"2025-08-04T21:00:00:Z","depth":"0","parameterNumber":2,"parameterNumberName":"U-component_of_CURRENTS"},"data":[0,0,0,0,0,0,0,0,0,0,0,0,0,0,0,0,0,0,0,0,0,0,0,0,0,0,0,0,0,0,0,0,0,0,0,0,0,0,0,0,0,0,0,0,0,0,0,0,0,0,0,0,0,0,0,0,0,0,0.1444,0.1444,0,0.1471,0.1471,0.1471,0.1462,0.1462,0.1462,0.1461,0.144,0.1439,0.1439,0,0,0,0,0,0,0,0,0,0,0,0,0,0.1392,0.1393,0.1444,0.1444,0.1445,0.1471,0.1471,0.1471,0.1462,0.1462,0.1462,0.1461,0.144,0.1439,0.1439,0,0,0,0,0,0,0,0,0,0,0,0,0,0.1414,0.1393,0.1444,0.1445,0.1446,0.1471,0.1471,0.1471,0.1463,0.1462,0.1461,0.1461,0.144,0.144,0.1439,0.1449,0,0,0.1438,0.1438,0,0,0,0,0,0,0,0,0.1413,0.1416,0.1444,0.1445,0.1446,0.1465,0.1445,0.1462,0.1463,0.1454,0.1461,0.1461,0.1445,0.1445,0.1448,0.1448,0.1447,0.1438,0.1438,0.1438,0.1438,0,0,0,0,0,0,0,0.1412,0.1415,0.1452,0.1445,0.1446,0.1447,0.145,0.1448,0.145,0.1455,0.1455,0.1461,0.1445,0.1449,0.1448,0.1446,0.1438,0.1438,0.1438,0.1438,0.1493,0.1494,0,0,0,0,0,0,0.1413,0.1413,0.1451,0.1453,0.143,0.1449,0.1451,0.1457,0.1451,0.145,0.1462,0.1461,0.145,0.1448,0.1447,0.15,0.1438,0.1438,0.1437,0.1491,0.1493,0.1495,0,0,0,0,0,0,0.1412,0.1416,0.145,0.1436,0.144,0.1451,0.1457,0.1458,0.1467,0.1457,0.1455,0.147,0.1449,0.1447,0.1465,0.1497,0.1437,0.1437,0.1489,0.1492,0.1494,0.1578,0,0,0,0,0,0,0.141,0.1415,0.142,0.1436,0.1441,0.1475,0.1458,0.1459,0.1473,0.1472,0.1464,0.1461,0.1449,0.1465,0.1464,0.1496,0.1437,0.1487,0.149,0.1493,0.1573,0.1583,0.1592,0,0,0,0,0,0.1408,0.1418,0.142,0.1424,0.1447,0.1477,0.148,0.1483,0.1474,0.1487,0.1487,0.1462,0.1484,0.1467,0.1465,0.1497,0.1486,0.1489,0.1493,0.1569,0.1581,0.1592,0,0,0,0,0,0,0.1394,0.1419,0.1421,0.1436,0.146,0.1476,0.1488,0.149,0.15,0.1497,0.1482,0.148,0.1507,0.1492,0.1472,0.1523,0.1481,0.1485,0.154,0.1551,0.156,0.1559,0.1437,0,0,0,0,0,0.1395,0.141,0.1435,0.1448,0.1461,0.1476,0.1487,0.1493,0.1506,0.1509,0.1507,0.1508,0.1522,0.1527,0.153,0.1557,0.1567,0.1577,0.1586,0.1594,0.1593,0.1643,0.1657,0.1507,0.1507,0.1507,0,0,0.1391,0.1409,0.1416,0.1447,0.1462,0.1493,0.1481,0.1506,0.1533,0.1505,0.1536,0.1538,0.1536,0.157,0.158,0.1561,0.1649,0.1599,0.1606,0.16,0.1649,0.1663,0.1676,0.151,0.1509,0.1509,0,0,0.1401,0.1412,0.1432,0.1457,0.1491,0.1507,0.1517,0.1544,0.1557,0.1589,0.1582,0.1607,0.1616,0.1634,0.164,0.1702,0.1694,0.1701,0.1749,0.18,0.1812,0.1823,0.1885,0.1901,0.1709,0.1709,0.1709,0,0.1394,0.1426,0.1443,0.1475,0.1499,0.1516,0.1549,0.1572,0.1601,0.1621,0.1607,0.1654,0.165,0.1705,0.1728,0.1723,0.1752,0.1708,0.1813,0.1823,0.1833,0.1893,0.191,0.1713,0.1713,0.1712,0.1712,0,0.1426,0.1453,0.147,0.1517,0.1546,0.1578,0.1616,0.1646,0.1661,0.1683,0.1735,0.1744,0.177,0.1782,0.1772,0.1847,0.1847,0.1818,0.1785,0.1854,0.1913,0.1928,0.172,0.1718,0.1717,0.1716,0,0,0.1404,0.1476,0.1483,0.1512,0.1571,0.1597,0.1654,0.1709,0.1744,0.1779,0.1831,0.1866,0.187,0.1878,0.1881,0.1923,0.2029,0.1904,0.1905,0.1967,0.2159,0.2237,0.2261,0.2022,0.2024,0.2026,0.2183,0,0.1423,0.1485,0.152,0.158,0.1616,0.1658,0.1706,0.1758,0.1797,0.1852,0.1886,0.1928,0.1909,0.1928,0.1974,0.2007,0.2069,0.199,0.208,0.2083,0.2145,0.2281,0.2296,0.2443,0.2198,0.22,0.2202,0,0.1444,0.1484,0.1542,0.1615,0.1634,0.1669,0.1748,0.1794,0.1876,0.1908,0.1966,0.199,0.2069,0.2031,0.2148,0.2101,0.214,0.2166,0.2172,0.222,0.219,0.2328,0.248,0.2423,0.2226,0.2224,0.2222,0,0.1422,0.15,0.1543,0.1569,0.1653,0.1682,0.1724,0.1803,0.1854,0.1942,0.1999,0.2074,0.213,0.2187,0.226,0.2207,0.2394,0.2323,0.2438,0.2443,0.2461,0.2465,0.2567,0.2417,0.2416,0.2416,0.2415,0,0.143,0.1465,0.1532,0.1556,0.16,0.1665,0.1721,0.1775,0.1871,0.1936,0.2019,0.2096,0.2172,0.2286,0.2317,0.2464,0.2452,0.2487,0.2505,0.2496,0.25,0.2451,0.2398,0.2422,0.2421,0.2419,0.2418,0,0.1398,0.1448,0.1493,0.157,0.1589,0.1614,0.1705,0.1745,0.1855,0.1949,0.1986,0.2144,0.2305,0.2415,0.2532,0.2563,0.2623,0.2713,0.2713,0.2729,0.2754,0.2705,0.2712,0.2596,0.2858,0.2861,0.2863,0,0.1388,0.1409,0.1475,0.1482,0.1509,0.156,0.1587,0.1704,0.1756,0.197,0.201,0.2228,0.2352,0.2617,0.2741,0.2889,0.2761,0.2975,0.287,0.2808,0.2766,0.2595,0.2479,0.2933,0.2936,0.2939,0.2941,0,0.1357,0.1375,0.1406,0.1411,0.1432,0.1457,0.1514,0.1563,0.171,0.183,0.1986,0.2117,0.2459,0.2647,0.2911,0.2993,0.2863,0.303,0.2962,0.2856,0.2679,0.2558,0.2773,0.2962,0.296,0.2958,0.2957,0.2956,0.1315,0.1317,0.1334,0.133,0.1329,0.1309,0.1312,0.1408,0.1493,0.1672,0.1871,0.2096,0.2523,0.2903,0.2957,0.3166,0.3004,0.3135,0.3092,0.293,0.2788,0.3074,0.3278,0.3278,0.3278,0.3277,0.3277,0,0.1258,0.1254,0.1246,0.1216,0.1146,0.1188,0.1222,0.1235,0.1297,0.1569,0.1741,0.2236,0.2563,0.2901,0.3287,0.3236,0.3019,0.3186,0.2927,0.2808,0.3099,0.3073,0.3247,0.3247,0.3247,0.3247,0.3248,0.3248,0.1226,0.1199,0.119,0.1036,0.0992,0.0903,0.0898,0.0963,0.1132,0.1443,0.1763,0.2061,0.2641,0.3213,0.3393,0.3317,0.2976,0.2945,0.2777,0.2999,0.2988,0.2976,0.2939,0.3083,0.3083,0.2388,0.2383,0.238]},{"header":{"parameterUnit":"m.s-1","parameterCategory":2,"la1":30.2991,"la2":30.254,"lo1":-89.0895,"lo2":-89.0444,"dy":0.0017,"dx":0.0017,"nx":28,"ny":28,"refTime":"2025-08-04T21:00:00:Z","depth":"0","parameterNumber":3,"parameterNumberName":"V-component_of_CURRENTS"},"data":[0,0,0,0,0,0,0,0,0,0,0,0,0,0,0,0,0,0,0,0,0,0,0,0,0,0,0,0,0,0,0,0,0,0,0,0,0,0,0,0,0,0,0,0,0,0,0,0,0,0,0,0,0,0,0,0,0,0,-0.018,-0.018,0,-0.0243,-0.0244,-0.0245,-0.0279,-0.0279,-0.0279,-0.0279,-0.0375,-0.0377,-0.038,0,0,0,0,0,0,0,0,0,0,0,0,0,-0.013,-0.013,-0.018,-0.0181,-0.0181,-0.0243,-0.0244,-0.0245,-0.0279,-0.0279,-0.0279,-0.0279,-0.0374,-0.0377,-0.038,0,0,0,0,0,0,0,0,0,0,0,0,0,-0.0169,-0.0131,-0.018,-0.0205,-0.0208,-0.0243,-0.0244,-0.0245,-0.0279,-0.0279,-0.0279,-0.0279,-0.0373,-0.0377,-0.038,-0.0405,0,0,-0.0392,-0.0394,0,0,0,0,0,0,0,0,-0.0167,-0.0171,-0.0201,-0.0203,-0.0206,-0.0252,-0.0261,-0.03,-0.0279,-0.0253,-0.0279,-0.0279,-0.0336,-0.0343,-0.0356,-0.0409,-0.0414,-0.0393,-0.0395,-0.0397,-0.0398,0,0,0,0,0,0,0,-0.0164,-0.0169,-0.0206,-0.0201,-0.0205,-0.0227,-0.0232,-0.0269,-0.0296,-0.0256,-0.0258,-0.0263,-0.0338,-0.0352,-0.0359,-0.0415,-0.0392,-0.0396,-0.0398,-0.04,-0.0495,-0.0495,0,0,0,0,0,0,-0.0152,-0.0166,-0.0204,-0.0208,-0.0185,-0.0228,-0.0234,-0.0239,-0.0295,-0.0303,-0.0263,-0.0265,-0.0346,-0.0354,-0.0362,-0.0383,-0.0397,-0.04,-0.0402,-0.0495,-0.0495,-0.0496,0,0,0,0,0,0,-0.015,-0.0155,-0.0202,-0.0188,-0.0195,-0.0228,-0.0234,-0.024,-0.0253,-0.03,-0.0309,-0.027,-0.0346,-0.0357,-0.0392,-0.0387,-0.0402,-0.0405,-0.0495,-0.0495,-0.0495,-0.0432,0,0,0,0,0,0,-0.0149,-0.0154,-0.0154,-0.0187,-0.0195,-0.0216,-0.0234,-0.0241,-0.0256,-0.0258,-0.0309,-0.0317,-0.0347,-0.0386,-0.0396,-0.0393,-0.0408,-0.0494,-0.0495,-0.0495,-0.0433,-0.043,-0.0426,0,0,0,0,0,-0.0147,-0.0144,-0.0154,-0.0158,-0.0194,-0.0216,-0.0222,-0.0247,-0.0256,-0.0259,-0.0294,-0.0316,-0.0396,-0.0389,-0.0401,-0.0399,-0.0494,-0.0495,-0.0495,-0.0435,-0.043,-0.0427,0,0,0,0,0,0,-0.0123,-0.0148,-0.0159,-0.0165,-0.0186,-0.0221,-0.0226,-0.0244,-0.0274,-0.0277,-0.0321,-0.0332,-0.036,-0.0392,-0.0384,-0.0429,-0.0448,-0.0451,-0.0398,-0.0395,-0.0391,-0.0366,-0.0412,0,0,0,0,0,-0.0117,-0.0121,-0.015,-0.0154,-0.0162,-0.0194,-0.0206,-0.0223,-0.0253,-0.0266,-0.03,-0.0339,-0.0373,-0.0392,-0.0427,-0.0454,-0.0477,-0.0461,-0.0457,-0.0454,-0.0443,-0.0477,-0.0475,-0.0497,-0.0497,-0.0497,0,0,-0.0109,-0.0123,-0.0126,-0.0149,-0.0168,-0.0173,-0.0201,-0.0215,-0.022,-0.0273,-0.0291,-0.0329,-0.0377,-0.0403,-0.0419,-0.0428,-0.0461,-0.0455,-0.0451,-0.0442,-0.0478,-0.0475,-0.0473,-0.0498,-0.0498,-0.0497,0,0,-0.009,-0.0106,-0.0102,-0.0116,-0.0138,-0.0158,-0.0159,-0.0192,-0.0206,-0.023,-0.0267,-0.0298,-0.0353,-0.0381,-0.0403,-0.0404,-0.0441,-0.0422,-0.0384,-0.0418,-0.0416,-0.0415,-0.0438,-0.0439,-0.042,-0.042,-0.042,0,-0.0078,-0.0078,-0.0104,-0.0103,-0.0108,-0.0146,-0.014,-0.0161,-0.0201,-0.0211,-0.0226,-0.0298,-0.0338,-0.0366,-0.0365,-0.0394,-0.0418,-0.0393,-0.0411,-0.041,-0.041,-0.0434,-0.0436,-0.0417,-0.0417,-0.0418,-0.0418,0,-0.0056,-0.0056,-0.0053,-0.0062,-0.0072,-0.0074,-0.0102,-0.0115,-0.0137,-0.0161,-0.0193,-0.0245,-0.0286,-0.0306,-0.0335,-0.0354,-0.0374,-0.04,-0.0415,-0.0403,-0.0431,-0.0434,-0.0413,-0.0414,-0.0415,-0.0415,0,0,-0.0031,-0.0036,-0.0035,-0.0028,-0.0049,-0.0054,-0.0059,-0.0076,-0.0077,-0.0119,-0.0124,-0.0181,-0.0212,-0.0239,-0.0284,-0.0311,-0.0329,-0.0349,-0.0352,-0.0359,-0.0397,-0.0361,-0.0362,-0.0361,-0.0361,-0.0361,-0.0415,0,-0.0005,0.0013,0.0001,0.0019,0.0027,-0.0001,-0.0,-0.0021,-0.0047,-0.0063,-0.0116,-0.0142,-0.0187,-0.0205,-0.0239,-0.0307,-0.0335,-0.0311,-0.0419,-0.0421,-0.038,-0.0363,-0.0304,-0.0343,-0.0419,-0.0419,-0.042,0,0.002,0.003,0.0054,0.0065,0.0066,0.007,0.0066,0.0061,0.0027,0.0007,-0.0029,-0.0074,-0.0119,-0.0159,-0.0257,-0.0242,-0.031,-0.0362,-0.0366,-0.0353,-0.0391,-0.037,-0.0347,-0.0551,-0.0425,-0.0425,-0.0424,0,0.0051,0.0068,0.009,0.0092,0.0095,0.0103,0.0102,0.0081,0.0107,0.0051,0.0072,-0.002,-0.0031,-0.0139,-0.0234,-0.0255,-0.0333,-0.0383,-0.0415,-0.0413,-0.0393,-0.0388,-0.0566,-0.045,-0.0449,-0.0449,-0.0449,0,0.0081,0.0099,0.0108,0.0118,0.0157,0.0139,0.0181,0.0157,0.017,0.0247,0.0116,0.0169,-0.0023,-0.0081,-0.0208,-0.0299,-0.0317,-0.0395,-0.042,-0.0369,-0.0362,-0.0563,-0.0685,-0.0451,-0.0451,-0.0451,-0.045,0,0.0107,0.0111,0.0142,0.0157,0.0173,0.0195,0.0264,0.0332,0.0291,0.0392,0.0391,0.0315,0.0248,0.0067,-0.0097,-0.0229,-0.045,-0.0385,-0.0303,-0.0316,-0.0541,-0.066,-0.0836,-0.0935,-0.0442,-0.0441,-0.044,0,0.0122,0.014,0.0178,0.023,0.0243,0.0295,0.0387,0.0393,0.0497,0.0531,0.0625,0.0547,0.0583,0.0318,0.0052,-0.0178,-0.0386,-0.0311,-0.0343,-0.0533,-0.0687,-0.0774,-0.0852,-0.03,-0.0299,-0.0297,-0.0296,0,0.0156,0.0165,0.0194,0.0317,0.0416,0.0554,0.0676,0.0766,0.0839,0.0902,0.1025,0.1033,0.0796,0.0585,0.0215,0.0038,-0.0447,-0.0289,-0.0518,-0.0606,-0.0682,-0.0795,-0.0292,-0.0284,-0.0285,-0.0286,-0.0287,-0.0287,0.0188,0.022,0.0299,0.0422,0.058,0.0836,0.0977,0.1122,0.1294,0.143,0.1396,0.1443,0.1065,0.0585,0.0265,-0.0297,-0.0334,-0.0466,-0.0598,-0.0672,-0.0757,-0.0211,-0.0212,-0.0213,-0.0213,-0.0214,-0.0214,0,0.0244,0.0308,0.0425,0.064,0.0914,0.0952,0.122,0.1372,0.1598,0.1698,0.1785,0.168,0.1189,0.0636,-0.0105,-0.0532,-0.0725,-0.0792,-0.0935,-0.1007,-0.0542,-0.0524,-0.0553,-0.0553,-0.0552,-0.0552,-0.0552,-0.0552,0.0281,0.039,0.0463,0.091,0.1112,0.1481,0.1643,0.1786,0.1885,0.2017,0.2052,0.2065,0.1688,0.0315,-0.0671,-0.0914,-0.1282,-0.1316,-0.1535,-0.1253,-0.1234,-0.1217,-0.1231,-0.1407,-0.1408,-0.1926,-0.1931,-0.1935]}],[{"header":{"parameterUnit":"m.s-1","parameterCategory":2,"la1":30.2991,"la2":30.254,"lo1":-89.0895,"lo2":-89.0444,"dy":0.0017,"dx":0.0017,"nx":28,"ny":28,"refTime":"2025-08-04T21:00:00:Z","depth":"2","parameterNumber":2,"parameterNumberName":"U-component_of_CURRENTS"},"data":[0,0,0,0,0,0,0,0,0,0,0,0,0,0,0,0,0,0,0,0,0,0,0,0,0,0,0,0,0,0,0,0,0,0,0,0,0,0,0,0,0,0,0,0,0,0,0,0,0,0,0,0,0,0,0,0,0,0,0.1476,0.1476,0,0.1505,0.1506,0.1506,0.1501,0.15,0.15,0.15,0.1493,0.1493,0.1493,0,0,0,0,0,0,0,0,0,0,0,0,0,0.1428,0.1429,0.1476,0.1476,0.1477,0.1505,0.1506,0.1506,0.1501,0.15,0.15,0.1499,0.1493,0.1493,0.1493,0,0,0,0,0,0,0,0,0,0,0,0,0,0.1451,0.1429,0.1476,0.1479,0.1479,0.1505,0.1506,0.1506,0.1501,0.15,0.15,0.1499,0.1493,0.1493,0.1493,0.1506,0,0,0.1494,0.1494,0,0,0,0,0,0,0,0,0.145,0.1453,0.1478,0.1479,0.1479,0.15,0.1487,0.1505,0.1501,0.1491,0.15,0.1499,0.1494,0.1494,0.1499,0.1506,0.1506,0.1494,0.1494,0.1494,0.1495,0,0,0,0,0,0,0,0.1448,0.1451,0.1486,0.1478,0.1479,0.1484,0.1486,0.149,0.1493,0.1492,0.1492,0.1498,0.1493,0.1499,0.1498,0.1505,0.1494,0.1494,0.1495,0.1495,0.1566,0.1568,0,0,0,0,0,0,0.1448,0.145,0.1485,0.1487,0.1465,0.1485,0.1488,0.1493,0.1494,0.1494,0.1499,0.1498,0.1498,0.1498,0.1498,0.1557,0.1494,0.1495,0.1495,0.1564,0.1566,0.1568,0,0,0,0,0,0,0.1447,0.1451,0.1484,0.147,0.1475,0.1487,0.1492,0.1494,0.1505,0.15,0.1499,0.1509,0.1498,0.1498,0.1523,0.1555,0.1495,0.1495,0.1562,0.1565,0.1567,0.1646,0,0,0,0,0,0,0.1445,0.145,0.1454,0.147,0.1476,0.151,0.1493,0.1495,0.151,0.1509,0.1508,0.1507,0.1497,0.1523,0.1523,0.1554,0.1495,0.156,0.1563,0.1566,0.1641,0.1651,0.1659,0,0,0,0,0,0.1443,0.1453,0.1454,0.1459,0.1481,0.1511,0.1514,0.1519,0.1511,0.1525,0.1531,0.1507,0.1543,0.1525,0.1524,0.1556,0.1558,0.1562,0.1566,0.1637,0.1649,0.1659,0,0,0,0,0,0,0.1431,0.1454,0.1456,0.147,0.1494,0.1511,0.1523,0.1526,0.1542,0.154,0.153,0.153,0.1563,0.1551,0.153,0.1587,0.1547,0.1551,0.1601,0.1612,0.1621,0.1617,0.1495,0,0,0,0,0,0.1432,0.1447,0.147,0.1483,0.1496,0.1511,0.1523,0.153,0.1546,0.1551,0.1555,0.1562,0.1579,0.1588,0.1595,0.1627,0.1631,0.1648,0.1657,0.1665,0.1663,0.17,0.1712,0.1581,0.1581,0.1581,0,0,0.143,0.1446,0.1453,0.1483,0.1498,0.1528,0.1517,0.1543,0.1571,0.1549,0.1586,0.1591,0.1594,0.1633,0.1646,0.1627,0.1711,0.167,0.1676,0.167,0.1706,0.1718,0.173,0.1584,0.1583,0.1583,0,0,0.1441,0.145,0.147,0.1494,0.1527,0.1543,0.1554,0.1583,0.1598,0.1636,0.1631,0.166,0.1679,0.1697,0.1705,0.1768,0.1755,0.1771,0.1817,0.1854,0.1865,0.1874,0.1923,0.1936,0.1778,0.1778,0.1778,0,0.1436,0.1465,0.1481,0.1511,0.1535,0.1553,0.1586,0.161,0.1645,0.1666,0.1656,0.1711,0.1711,0.1767,0.1791,0.1789,0.1809,0.1775,0.1866,0.1875,0.1883,0.193,0.1944,0.1782,0.1782,0.1782,0.1781,0,0.1466,0.1492,0.1509,0.1553,0.1582,0.1615,0.1653,0.1684,0.1703,0.1727,0.1784,0.1799,0.1828,0.1842,0.1835,0.1902,0.1899,0.1871,0.1837,0.1901,0.1947,0.196,0.1789,0.1787,0.1786,0.1785,0,0,0.1447,0.1515,0.1521,0.155,0.1608,0.1635,0.169,0.1745,0.1782,0.1822,0.1875,0.1916,0.1922,0.1932,0.1937,0.1972,0.2058,0.1951,0.1951,0.1998,0.2157,0.2139,0.2151,0.2048,0.205,0.2052,0.2176,0,0.1466,0.1525,0.1558,0.1619,0.1654,0.1694,0.1744,0.1795,0.1838,0.1894,0.1929,0.1977,0.1958,0.1982,0.2017,0.2041,0.2091,0.2028,0.2088,0.209,0.2064,0.2164,0.1994,0.2088,0.2188,0.219,0.2191,0,0.1486,0.1525,0.1583,0.1656,0.1675,0.1711,0.1791,0.1839,0.1919,0.1955,0.2012,0.2036,0.2106,0.2072,0.2162,0.2124,0.2149,0.2167,0.2172,0.213,0.2095,0.2034,0.2107,0.2212,0.221,0.2209,0.2207,0,0.1468,0.1544,0.1589,0.1614,0.1697,0.1728,0.1773,0.1852,0.191,0.1996,0.2055,0.2117,0.2179,0.2205,0.2248,0.2211,0.2345,0.2294,0.231,0.2309,0.2162,0.2145,0.2364,0.2364,0.2364,0.2364,0.2363,0,0.1478,0.1515,0.158,0.1606,0.1661,0.1719,0.1792,0.1842,0.1941,0.203,0.2083,0.2169,0.2217,0.2296,0.2294,0.2358,0.2388,0.2343,0.2347,0.2188,0.2173,0.226,0.2246,0.2368,0.2367,0.2366,0.2365,0,0.1453,0.15,0.1551,0.1628,0.1653,0.1688,0.1801,0.1862,0.1954,0.2077,0.2114,0.2243,0.2342,0.239,0.2462,0.2444,0.2478,0.2491,0.2313,0.2294,0.2406,0.2395,0.2519,0.252,0.252,0.252,0.2521,0,0.1447,0.147,0.1547,0.1577,0.1611,0.1681,0.1741,0.1849,0.1934,0.2123,0.219,0.2331,0.2402,0.2512,0.2515,0.2537,0.2543,0.2395,0.2283,0.2434,0.2425,0.2413,0.2402,0.2133,0.213,0.2128,0.2126,0,0.1425,0.1448,0.1484,0.1548,0.1606,0.1693,0.1791,0.1853,0.2007,0.2085,0.2211,0.2269,0.2424,0.2376,0.2441,0.2417,0.2366,0.2349,0.2569,0.2117,0.2079,0.2067,0.2067,0.2105,0.2107,0.2109,0.211,0.2111,0.1393,0.1406,0.1454,0.1517,0.1593,0.169,0.1727,0.1824,0.1907,0.2,0.213,0.215,0.2232,0.2222,0.2188,0.2182,0.232,0.2203,0.2206,0.2213,0.2143,0.2107,0.2127,0.2129,0.2131,0.2132,0.2134,0,0.1341,0.1376,0.1429,0.1516,0.1602,0.1662,0.1755,0.1751,0.1777,0.1877,0.1915,0.1816,0.1826,0.1903,0.1876,0.1904,0.184,0.182,0.1712,0.1738,0.1759,0.166,0.1519,0.1516,0.1514,0.1512,0,0,0.1314,0.1337,0.1379,0.1503,0.1585,0.1633,0.1661,0.161,0.1623,0.1565,0.1565,0.1705,0.1839,0.1632,0.1644,0.1575,0.1624,0.1517,0.202,0.1917,0.1934,0.2006,0.1887,0,0,0,0,0]},{"header":{"parameterUnit":"m.s-1","parameterCategory":2,"la1":30.2991,"la2":30.254,"lo1":-89.0895,"lo2":-89.0444,"dy":0.0017,"dx":0.0017,"nx":28,"ny":28,"refTime":"2025-08-04T21:00:00:Z","depth":"2","parameterNumber":3,"parameterNumberName":"V-component_of_CURRENTS"},"data":[0,0,0,0,0,0,0,0,0,0,0,0,0,0,0,0,0,0,0,0,0,0,0,0,0,0,0,0,0,0,0,0,0,0,0,0,0,0,0,0,0,0,0,0,0,0,0,0,0,0,0,0,0,0,0,0,0,0,-0.0181,-0.0181,0,-0.0239,-0.0239,-0.024,-0.0273,-0.0273,-0.0273,-0.0273,-0.0363,-0.0366,-0.0368,0,0,0,0,0,0,0,0,0,0,0,0,0,-0.0133,-0.0134,-0.018,-0.0181,-0.0182,-0.0239,-0.0239,-0.024,-0.0273,-0.0273,-0.0273,-0.0273,-0.0363,-0.0365,-0.0368,0,0,0,0,0,0,0,0,0,0,0,0,0,-0.0169,-0.0134,-0.018,-0.0204,-0.0207,-0.0238,-0.0239,-0.0241,-0.0273,-0.0273,-0.0273,-0.0273,-0.0362,-0.0365,-0.0369,-0.0389,0,0,-0.0379,-0.0381,0,0,0,0,0,0,0,0,-0.0167,-0.0171,-0.02,-0.0203,-0.0206,-0.0248,-0.0256,-0.0292,-0.0273,-0.0249,-0.0273,-0.0273,-0.0327,-0.0333,-0.0345,-0.0394,-0.0398,-0.038,-0.0382,-0.0383,-0.0384,0,0,0,0,0,0,0,-0.0165,-0.0169,-0.0204,-0.0201,-0.0204,-0.0224,-0.0229,-0.0263,-0.0288,-0.0251,-0.0254,-0.0259,-0.0329,-0.0342,-0.0348,-0.0399,-0.038,-0.0383,-0.0385,-0.0386,-0.048,-0.048,0,0,0,0,0,0,-0.0154,-0.0167,-0.0203,-0.0206,-0.0185,-0.0225,-0.023,-0.0235,-0.0287,-0.0295,-0.0258,-0.026,-0.0336,-0.0343,-0.0351,-0.0373,-0.0383,-0.0387,-0.0389,-0.048,-0.048,-0.048,0,0,0,0,0,0,-0.0153,-0.0156,-0.02,-0.0187,-0.0194,-0.0225,-0.023,-0.0236,-0.0249,-0.0292,-0.0301,-0.0265,-0.0336,-0.0346,-0.038,-0.0377,-0.0388,-0.0391,-0.0479,-0.048,-0.048,-0.042,0,0,0,0,0,0,-0.0151,-0.0156,-0.0156,-0.0186,-0.0194,-0.0213,-0.0231,-0.0237,-0.0251,-0.0254,-0.0301,-0.0309,-0.0337,-0.0375,-0.0384,-0.0382,-0.0394,-0.0479,-0.0479,-0.048,-0.0422,-0.0419,-0.0416,0,0,0,0,0,-0.0149,-0.0145,-0.0155,-0.016,-0.0193,-0.0212,-0.0218,-0.0242,-0.0251,-0.0254,-0.0288,-0.0307,-0.0386,-0.0378,-0.0388,-0.0387,-0.0478,-0.0479,-0.048,-0.0423,-0.042,-0.0416,0,0,0,0,0,0,-0.0124,-0.0149,-0.0161,-0.0165,-0.0185,-0.0217,-0.0222,-0.0239,-0.0268,-0.0271,-0.0313,-0.0324,-0.0352,-0.0382,-0.0372,-0.0418,-0.0435,-0.0438,-0.0389,-0.0385,-0.0383,-0.0358,-0.0397,0,0,0,0,0,-0.0119,-0.0123,-0.015,-0.0153,-0.0161,-0.0192,-0.0203,-0.0219,-0.0247,-0.026,-0.0293,-0.0331,-0.0364,-0.0383,-0.0417,-0.0443,-0.0465,-0.0451,-0.0448,-0.0445,-0.0433,-0.0466,-0.0464,-0.0483,-0.0483,-0.0483,0,0,-0.011,-0.0124,-0.0127,-0.0149,-0.0166,-0.017,-0.0198,-0.0211,-0.0215,-0.0266,-0.0284,-0.0322,-0.037,-0.0396,-0.0411,-0.042,-0.0452,-0.0446,-0.0443,-0.0433,-0.0467,-0.0465,-0.0463,-0.0484,-0.0484,-0.0484,0,0,-0.0089,-0.0106,-0.0101,-0.0114,-0.0135,-0.0154,-0.0155,-0.0187,-0.0201,-0.0225,-0.0262,-0.0295,-0.0348,-0.0376,-0.0399,-0.0402,-0.0435,-0.042,-0.0385,-0.0417,-0.0415,-0.0413,-0.0436,-0.0437,-0.0419,-0.0418,-0.0418,0,-0.0076,-0.0075,-0.0102,-0.0099,-0.0103,-0.0142,-0.0135,-0.0156,-0.0195,-0.0205,-0.0222,-0.0295,-0.0334,-0.0364,-0.0365,-0.0393,-0.0416,-0.039,-0.0411,-0.041,-0.0409,-0.0433,-0.0435,-0.0416,-0.0416,-0.0416,-0.0417,0,-0.0052,-0.005,-0.0047,-0.0055,-0.0065,-0.0065,-0.0094,-0.0108,-0.0131,-0.0156,-0.019,-0.0244,-0.0285,-0.0307,-0.0337,-0.0357,-0.0375,-0.04,-0.0412,-0.0403,-0.0429,-0.0432,-0.0412,-0.0413,-0.0413,-0.0414,0,0,-0.0023,-0.0027,-0.0026,-0.0018,-0.004,-0.0042,-0.0049,-0.0067,-0.0067,-0.0113,-0.0118,-0.018,-0.0212,-0.024,-0.0287,-0.0315,-0.0334,-0.0352,-0.0355,-0.036,-0.0399,-0.0409,-0.0414,-0.0364,-0.0364,-0.0365,-0.0417,0,0.0006,0.0029,0.0014,0.0036,0.0046,0.0016,0.0016,-0.0006,-0.0035,-0.0052,-0.011,-0.0138,-0.0188,-0.0206,-0.0243,-0.0311,-0.034,-0.0317,-0.0418,-0.0421,-0.042,-0.0417,-0.0394,-0.0438,-0.042,-0.042,-0.0421,0,0.0036,0.0048,0.0075,0.0089,0.0091,0.0094,0.009,0.0083,0.0045,0.0023,-0.0018,-0.0065,-0.0114,-0.0157,-0.0258,-0.0242,-0.0312,-0.0365,-0.0369,-0.0398,-0.0437,-0.0447,-0.0445,-0.0426,-0.0426,-0.0425,-0.0425,0,0.0073,0.0092,0.0118,0.0121,0.0124,0.0132,0.013,0.0104,0.0111,0.0068,0.0068,-0.0007,-0.0037,-0.0131,-0.0239,-0.0252,-0.0345,-0.0382,-0.0455,-0.0456,-0.0465,-0.0467,-0.0449,-0.0449,-0.0449,-0.0448,-0.0448,0,0.0109,0.013,0.0138,0.0151,0.0189,0.0172,0.0202,0.0183,0.0173,0.0182,0.0109,0.0099,-0.0031,-0.0102,-0.0213,-0.0333,-0.0328,-0.0441,-0.0469,-0.0445,-0.0444,-0.0459,-0.0459,-0.045,-0.045,-0.045,-0.0449,0,0.0142,0.0146,0.0179,0.0195,0.0206,0.0228,0.0259,0.0285,0.0257,0.0268,0.026,0.0185,0.0084,-0.0041,-0.0191,-0.029,-0.0411,-0.0457,-0.0412,-0.0434,-0.051,-0.0507,-0.0549,-0.055,-0.055,-0.0551,-0.0551,0,0.0161,0.018,0.0215,0.025,0.0259,0.0297,0.0334,0.0325,0.0343,0.0316,0.0323,0.0243,0.0186,-0.0023,-0.021,-0.039,-0.0418,-0.0486,-0.0513,-0.0496,-0.052,-0.0516,-0.0512,-0.0504,-0.0504,-0.0504,-0.0504,0,0.0199,0.0206,0.0235,0.031,0.0356,0.0403,0.0437,0.0452,0.0436,0.045,0.0425,0.0383,0.019,0.0015,-0.0218,-0.035,-0.0456,-0.0494,-0.0489,-0.0479,-0.0457,-0.0479,-0.0476,-0.0504,-0.0504,-0.0504,-0.0504,-0.0504,0.0229,0.0259,0.0305,0.0377,0.0439,0.0477,0.049,0.0531,0.0553,0.0552,0.0507,0.0476,0.0276,-0.0013,-0.0235,-0.0463,-0.0471,-0.0545,-0.0543,-0.0542,-0.0524,-0.0505,-0.0557,-0.0557,-0.0557,-0.0557,-0.0558,0,0.0274,0.0312,0.0381,0.0439,0.0496,0.0525,0.055,0.0561,0.0582,0.0632,0.0629,0.0466,0.0269,0.0045,-0.0289,-0.05,-0.052,-0.0565,-0.0535,-0.0534,-0.0533,-0.0514,-0.0545,-0.0545,-0.0546,-0.0546,0,0,0.0303,0.0372,0.0405,0.0486,0.0522,0.0553,0.0553,0.0597,0.0631,0.0676,0.0696,0.0664,0.0376,0.015,-0.0147,-0.0338,-0.039,-0.0384,-0.0374,-0.0305,-0.0301,-0.0505,-0.0473,0,0,0,0,0]}],[{"header":{"parameterUnit":"m.s-1","parameterCategory":2,"la1":30.2991,"la2":30.254,"lo1":-89.0895,"lo2":-89.0444,"dy":0.0017,"dx":0.0017,"nx":28,"ny":28,"refTime":"2025-08-04T21:00:00:Z","depth":"4","parameterNumber":2,"parameterNumberName":"U-component_of_CURRENTS"},"data":[0,0,0,0,0,0,0,0,0,0,0,0,0,0,0,0,0,0,0,0,0,0,0,0,0,0,0,0,0,0,0,0,0,0,0,0,0,0,0,0,0,0,0,0,0,0,0,0,0,0,0,0,0,0,0,0,0,0,0.0985,0.0986,0,0.1011,0.1011,0.1011,0.1039,0.104,0.104,0.1041,0.1057,0.1057,0.1057,0,0,0,0,0,0,0,0,0,0,0,0,0,0.0931,0.0932,0.0985,0.0986,0.0986,0.1011,0.1011,0.1011,0.1039,0.104,0.104,0.1041,0.1057,0.1057,0.1057,0,0,0,0,0,0,0,0,0,0,0,0,0,0.0954,0.0933,0.0985,0.1004,0.1006,0.1011,0.1011,0.1011,0.1039,0.104,0.1041,0.1041,0.1057,0.1057,0.1057,0.1039,0,0,0.1057,0.1057,0,0,0,0,0,0,0,0,0.0953,0.0956,0.1001,0.1003,0.1005,0.1024,0.0998,0.1021,0.1039,0.1025,0.1041,0.1042,0.1046,0.1047,0.1047,0.104,0.1041,0.1057,0.1057,0.1057,0.1057,0,0,0,0,0,0,0,0.0951,0.0955,0.0994,0.1002,0.1004,0.1002,0.1006,0.1003,0.1029,0.1026,0.1028,0.1034,0.1047,0.1047,0.1048,0.1041,0.1057,0.1057,0.1057,0.1057,0.1099,0.11,0,0,0,0,0,0,0.0952,0.0953,0.0993,0.0994,0.0983,0.1003,0.1007,0.1016,0.1029,0.1032,0.1033,0.1035,0.1047,0.1048,0.1049,0.1101,0.1057,0.1057,0.1056,0.1098,0.11,0.1101,0,0,0,0,0,0,0.0951,0.0956,0.0992,0.0976,0.098,0.1003,0.1012,0.1016,0.1039,0.1035,0.1038,0.1056,0.1048,0.1049,0.1065,0.11,0.1056,0.1056,0.1097,0.1099,0.11,0.116,0,0,0,0,0,0,0.095,0.0955,0.097,0.0976,0.0982,0.1009,0.1012,0.1016,0.1041,0.1044,0.1054,0.1056,0.1049,0.1065,0.1065,0.1099,0.1056,0.1095,0.1097,0.11,0.1156,0.1163,0.117,0,0,0,0,0,0.0948,0.0962,0.0971,0.0976,0.0999,0.101,0.1013,0.1029,0.1041,0.1053,0.1062,0.1057,0.108,0.1066,0.1065,0.11,0.1094,0.1097,0.1099,0.1153,0.1162,0.1169,0,0,0,0,0,0,0.0946,0.0967,0.0976,0.0997,0.101,0.1016,0.1033,0.1041,0.1057,0.1069,0.1063,0.1065,0.1094,0.1085,0.107,0.1119,0.109,0.1092,0.1131,0.1139,0.1146,0.1152,0.1056,0,0,0,0,0,0.0953,0.0972,0.0985,0.1004,0.1014,0.1027,0.1038,0.105,0.1061,0.1071,0.1078,0.1089,0.11,0.1111,0.1114,0.1135,0.114,0.1159,0.1166,0.1172,0.1177,0.1214,0.1225,0.111,0.111,0.111,0,0,0.0958,0.0973,0.0984,0.1006,0.102,0.1037,0.1037,0.1062,0.1081,0.1068,0.1103,0.111,0.111,0.1138,0.1151,0.1138,0.1209,0.1175,0.118,0.1183,0.1218,0.1229,0.1239,0.1112,0.1111,0.1111,0,0,0.097,0.0993,0.1011,0.1025,0.1052,0.1059,0.1072,0.1091,0.111,0.1135,0.1137,0.1164,0.1177,0.1188,0.1194,0.1237,0.124,0.1247,0.129,0.1326,0.1336,0.1344,0.1372,0.1383,0.1254,0.1254,0.1254,0,0.0976,0.1,0.1017,0.1037,0.1055,0.1073,0.1094,0.111,0.1134,0.1155,0.1156,0.1201,0.1201,0.124,0.1261,0.1253,0.1274,0.126,0.1335,0.1344,0.1352,0.1378,0.1389,0.1257,0.1257,0.1257,0.1256,0,0.0993,0.1022,0.1035,0.1068,0.1087,0.1111,0.1134,0.1164,0.119,0.1207,0.1258,0.1264,0.1294,0.1303,0.1296,0.1358,0.1355,0.1337,0.1316,0.1367,0.1391,0.1402,0.1262,0.1261,0.126,0.1259,0,0,0.0983,0.1037,0.1044,0.1067,0.1109,0.1123,0.1168,0.1207,0.1244,0.1277,0.1326,0.1355,0.1374,0.1381,0.1385,0.1416,0.149,0.1411,0.1411,0.1439,0.1578,0.1494,0.1497,0.1495,0.1497,0.1499,0.1575,0,0.0993,0.1032,0.1061,0.1104,0.1125,0.1165,0.1202,0.1245,0.1284,0.1334,0.1365,0.1408,0.1399,0.1427,0.1461,0.148,0.152,0.1471,0.1522,0.1523,0.1444,0.1507,0.1505,0.1582,0.1585,0.1586,0.1588,0,0.0994,0.1023,0.1066,0.1126,0.1141,0.1174,0.1245,0.1282,0.1355,0.1391,0.1448,0.1471,0.1532,0.1512,0.1587,0.1562,0.1583,0.1592,0.1594,0.1502,0.1459,0.1518,0.1606,0.1605,0.1603,0.1602,0.1601,0,0.0962,0.1025,0.1061,0.108,0.1149,0.1189,0.1233,0.1305,0.1346,0.1436,0.1478,0.1545,0.1589,0.1629,0.1658,0.1637,0.1732,0.1698,0.1643,0.1637,0.1661,0.1651,0.1758,0.1758,0.1758,0.1758,0.1758,0,0.0946,0.0977,0.1054,0.1071,0.1126,0.1182,0.1248,0.1304,0.1389,0.1443,0.151,0.1557,0.1624,0.1679,0.1695,0.1706,0.1767,0.1664,0.1657,0.1685,0.1676,0.1669,0.1658,0.1761,0.176,0.1759,0.1759,0,0.0897,0.095,0.0993,0.1077,0.111,0.1149,0.1251,0.1298,0.1384,0.146,0.1495,0.159,0.1661,0.1714,0.1781,0.1742,0.1762,0.1752,0.1793,0.1784,0.1634,0.1625,0.1693,0.1691,0.1689,0.1687,0.1686,0,0.0872,0.089,0.0983,0.102,0.1065,0.1135,0.1189,0.1286,0.1332,0.1465,0.1493,0.1598,0.1653,0.1679,0.1741,0.1777,0.1756,0.1754,0.1679,0.1645,0.1631,0.1625,0.1618,0.1683,0.1683,0.1682,0.1682,0,0.0821,0.0864,0.0902,0.098,0.1044,0.1104,0.1185,0.1204,0.1317,0.1404,0.1459,0.1505,0.1583,0.1628,0.1674,0.1691,0.1745,0.1734,0.1737,0.1666,0.1634,0.162,0.1616,0.1675,0.1676,0.1677,0.1677,0,0.0788,0.0804,0.0871,0.0935,0.1016,0.1065,0.1102,0.1162,0.1216,0.1345,0.1363,0.1476,0.1566,0.1586,0.1628,0.1643,0.1612,0.1552,0.1564,0.1571,0.1497,0.1436,0.1425,0,0,0,0,0,0.0753,0.0779,0.0829,0.09,0.0977,0.1029,0.1107,0.1142,0.1235,0.1244,0.1298,0.1364,0.1428,0.1484,0.1476,0.1587,0.1624,0.1571,0.1562,0.164,0.1647,0.1571,0,0,0,0,0,0,0.0734,0.078,0.0808,0.0868,0.091,0.0989,0.1034,0.1089,0.1087,0.1181,0.1217,0.1298,0.1374,0.1427,0.1457,0.1476,0.1446,0.1642,0.1639,0.1635,0.1642,0.1648,0.1572,0,0,0,0,0]},{"header":{"parameterUnit":"m.s-1","parameterCategory":2,"la1":30.2991,"la2":30.254,"lo1":-89.0895,"lo2":-89.0444,"dy":0.0017,"dx":0.0017,"nx":28,"ny":28,"refTime":"2025-08-04T21:00:00:Z","depth":"4","parameterNumber":3,"parameterNumberName":"V-component_of_CURRENTS"},"data":[0,0,0,0,0,0,0,0,0,0,0,0,0,0,0,0,0,0,0,0,0,0,0,0,0,0,0,0,0,0,0,0,0,0,0,0,0,0,0,0,0,0,0,0,0,0,0,0,0,0,0,0,0,0,0,0,0,0,-0.0101,-0.0101,0,-0.0132,-0.0133,-0.0133,-0.016,-0.0161,-0.0161,-0.0161,-0.0198,-0.0199,-0.02,0,0,0,0,0,0,0,0,0,0,0,0,0,-0.007,-0.0071,-0.0101,-0.0101,-0.0102,-0.0132,-0.0133,-0.0133,-0.016,-0.0161,-0.0161,-0.0161,-0.0198,-0.0199,-0.02,0,0,0,0,0,0,0,0,0,0,0,0,0,-0.0091,-0.0071,-0.0101,-0.0119,-0.0121,-0.0132,-0.0133,-0.0133,-0.016,-0.0161,-0.0161,-0.0162,-0.0198,-0.0199,-0.02,-0.0197,0,0,-0.0203,-0.0203,0,0,0,0,0,0,0,0,-0.009,-0.0092,-0.0116,-0.0118,-0.012,-0.0143,-0.0136,-0.0155,-0.016,-0.0145,-0.0161,-0.0162,-0.018,-0.0183,-0.0187,-0.0198,-0.02,-0.0203,-0.0204,-0.0204,-0.0205,0,0,0,0,0,0,0,-0.0088,-0.0091,-0.0113,-0.0116,-0.0119,-0.0128,-0.0131,-0.0139,-0.016,-0.0146,-0.0149,-0.0152,-0.0181,-0.0186,-0.0188,-0.0201,-0.0203,-0.0204,-0.0205,-0.0205,-0.0238,-0.0239,0,0,0,0,0,0,-0.0084,-0.0089,-0.0112,-0.0114,-0.0106,-0.0128,-0.0131,-0.0135,-0.0159,-0.0164,-0.0152,-0.0153,-0.0184,-0.0187,-0.019,-0.0201,-0.0204,-0.0205,-0.0206,-0.0238,-0.0239,-0.0239,0,0,0,0,0,0,-0.0083,-0.0085,-0.0111,-0.0102,-0.0106,-0.0128,-0.0131,-0.0135,-0.0144,-0.0163,-0.0168,-0.0157,-0.0185,-0.0188,-0.0197,-0.0203,-0.0206,-0.0207,-0.0238,-0.0238,-0.0239,-0.0216,0,0,0,0,0,0,-0.0082,-0.0085,-0.0086,-0.0102,-0.0107,-0.0115,-0.0131,-0.0136,-0.0145,-0.0148,-0.0169,-0.0173,-0.0185,-0.0196,-0.0198,-0.0204,-0.0207,-0.0238,-0.0238,-0.0239,-0.0216,-0.0216,-0.0215,0,0,0,0,0,-0.008,-0.0076,-0.0086,-0.0088,-0.0107,-0.0114,-0.0117,-0.0134,-0.0145,-0.0145,-0.016,-0.0172,-0.0201,-0.0196,-0.0199,-0.0206,-0.0237,-0.0238,-0.0238,-0.0217,-0.0216,-0.0215,0,0,0,0,0,0,-0.0062,-0.0079,-0.009,-0.0091,-0.0102,-0.0119,-0.012,-0.0133,-0.0145,-0.0149,-0.0169,-0.0174,-0.0186,-0.0198,-0.0192,-0.0218,-0.0224,-0.0225,-0.0206,-0.0206,-0.0205,-0.0192,-0.0208,0,0,0,0,0,-0.0059,-0.0062,-0.0079,-0.0079,-0.0084,-0.0103,-0.0108,-0.012,-0.0133,-0.0139,-0.0155,-0.0174,-0.0191,-0.0198,-0.0213,-0.0221,-0.0234,-0.023,-0.0229,-0.0228,-0.0221,-0.0252,-0.0253,-0.0241,-0.0241,-0.0241,0,0,-0.0052,-0.0062,-0.0063,-0.0076,-0.0086,-0.0085,-0.0107,-0.0113,-0.0114,-0.0141,-0.0146,-0.0169,-0.0192,-0.0204,-0.0212,-0.0214,-0.0238,-0.0229,-0.0228,-0.0221,-0.0253,-0.0254,-0.0255,-0.0241,-0.0241,-0.0241,0,0,-0.0033,-0.0048,-0.0042,-0.0048,-0.0061,-0.0072,-0.0073,-0.0091,-0.0102,-0.0108,-0.0134,-0.0158,-0.0175,-0.0198,-0.021,-0.0213,-0.0233,-0.0223,-0.0208,-0.0238,-0.0239,-0.024,-0.0252,-0.0255,-0.0223,-0.0223,-0.0223,0,-0.0023,-0.0018,-0.004,-0.0034,-0.0034,-0.0064,-0.0053,-0.0067,-0.0086,-0.0093,-0.0106,-0.0147,-0.0172,-0.0192,-0.02,-0.0211,-0.0225,-0.0208,-0.0236,-0.0238,-0.0239,-0.0252,-0.0255,-0.0222,-0.0222,-0.0222,-0.0222,0,0.0001,0.0005,0.001,0.0007,0.0003,0.0008,-0.0013,-0.0022,-0.004,-0.0058,-0.0082,-0.0119,-0.0143,-0.0164,-0.0183,-0.0209,-0.0214,-0.0231,-0.0236,-0.0239,-0.0252,-0.0255,-0.022,-0.0221,-0.0221,-0.0221,0,0,0.0027,0.0028,0.003,0.0042,0.0027,0.0032,0.0026,0.0016,0.0017,-0.002,-0.0022,-0.0074,-0.0103,-0.012,-0.0156,-0.0189,-0.0219,-0.0214,-0.0216,-0.022,-0.0274,-0.0276,-0.028,-0.0243,-0.0244,-0.0245,-0.0276,0,0.0055,0.0083,0.0071,0.0098,0.0114,0.0088,0.0091,0.0074,0.0051,0.0039,-0.0017,-0.0034,-0.0084,-0.0097,-0.0141,-0.0197,-0.0228,-0.0208,-0.0275,-0.0276,-0.0274,-0.0284,-0.0247,-0.0279,-0.0279,-0.028,-0.028,0,0.0085,0.0102,0.0135,0.0156,0.016,0.0167,0.0169,0.0165,0.013,0.0113,0.0072,0.0031,-0.0024,-0.0064,-0.0162,-0.0147,-0.0206,-0.0254,-0.0257,-0.0267,-0.0285,-0.0278,-0.0287,-0.0286,-0.0286,-0.0286,-0.0285,0,0.0124,0.0149,0.0181,0.0186,0.0198,0.0207,0.0209,0.0186,0.0186,0.0156,0.015,0.0082,0.0048,-0.0037,-0.0146,-0.0153,-0.0249,-0.0269,-0.0324,-0.0324,-0.0322,-0.0321,-0.0336,-0.0336,-0.0336,-0.0336,-0.0335,0,0.0162,0.0189,0.0203,0.0221,0.0262,0.0251,0.0276,0.0268,0.025,0.0243,0.0188,0.0164,0.0049,-0.0026,-0.0121,-0.0231,-0.0232,-0.0319,-0.0336,-0.0311,-0.0308,-0.0324,-0.0322,-0.0337,-0.0336,-0.0336,-0.0336,0,0.0198,0.0206,0.0248,0.0271,0.0281,0.0308,0.0321,0.0324,0.0313,0.0302,0.0295,0.0223,0.0123,0.0012,-0.0123,-0.0196,-0.0298,-0.0338,-0.0286,-0.0301,-0.0355,-0.0352,-0.0392,-0.0392,-0.0393,-0.0393,-0.0393,0,0.0219,0.0244,0.0286,0.0304,0.0315,0.0346,0.0354,0.0354,0.0346,0.0326,0.0311,0.0237,0.017,0.0005,-0.0124,-0.0281,-0.0316,-0.0351,-0.0372,-0.035,-0.0363,-0.0359,-0.0356,-0.0394,-0.0394,-0.0394,-0.0394,0,0.0257,0.0269,0.0298,0.0332,0.035,0.0372,0.0379,0.0391,0.0373,0.0376,0.0333,0.025,0.014,0.0003,-0.0115,-0.0237,-0.0316,-0.0355,-0.0356,-0.0376,-0.0353,-0.0364,-0.036,-0.0395,-0.0395,-0.0395,-0.0395,0,0.0275,0.0299,0.0319,0.0346,0.0363,0.036,0.0388,0.0373,0.0376,0.0358,0.0342,0.0241,0.0184,0.0024,-0.0093,-0.0201,-0.0239,-0.0269,-0.0275,-0.0275,-0.0241,-0.0194,-0.0201,0,0,0,0,0,0.0284,0.0294,0.0323,0.0339,0.0348,0.0352,0.0368,0.0384,0.0388,0.0365,0.0358,0.0259,0.0102,0.0035,-0.0076,-0.0127,-0.0276,-0.0261,-0.0317,-0.0402,-0.04,-0.0382,0,0,0,0,0,0,0.0283,0.031,0.0315,0.03,0.0309,0.031,0.0323,0.0341,0.0329,0.0338,0.0259,0.0235,0.0079,0.0165,-0.0076,-0.0111,-0.016,-0.0332,-0.0334,-0.0403,-0.0401,-0.04,-0.0381,0,0,0,0,0]}]]